Location: Helsinki
(60.1699°N, 24.9384°E)
Time: 03:23:17
(UTC+02:00)

S-56A Canister/Altair - All Passes

Search period start: 27 October 2020 00:00
Search period end: 06 November 2020 00:00
Orbit: 633 x 2499 km, 38.9° (Epoch: 26 October)

Date Brightness Start Highest point End Pass type
(mag) Time Alt. Az. Time Alt. Az. Time Alt. Az.
27 Oct - 07:45:34 10° SSW 07:50:08 17° SSE 07:55:42 10° SE daylight
27 Oct - 09:46:50 10° SW 09:52:39 19° S 09:59:53 10° SSE daylight
27 Oct - 11:51:09 10° SW 11:55:26 13° SSW 12:00:15 10° S daylight
28 Oct - 07:13:46 10° S 07:17:32 15° SSE 07:22:00 10° SE daylight
28 Oct - 09:14:34 10° SW 09:19:54 18° S 09:26:30 10° SE daylight
28 Oct - 11:18:25 10° SW 11:22:37 13° SSW 11:27:24 10° S daylight
29 Oct - 06:42:12 10° S 06:44:59 12° SSE 06:48:09 10° SE visible
29 Oct - 08:42:22 10° SW 08:47:11 17° S 08:53:06 10° SE daylight
29 Oct - 10:45:48 10° SW 10:49:51 13° SSW 10:54:26 10° S daylight
30 Oct - 06:11:22 10° SSE 06:12:29 10° SSE 06:13:39 10° SE visible
30 Oct - 08:10:16 10° SSW 08:14:32 16° S 08:19:42 10° SE daylight
30 Oct - 10:13:19 10° SW 10:17:05 13° SSW 10:21:24 10° S daylight
31 Oct - 07:38:16 10° SSW 07:41:55 15° S 07:46:15 10° SE daylight
31 Oct - 09:40:57 10° SW 09:44:23 13° SSW 09:48:17 10° S daylight
01 Nov - 07:06:23 10° SSW 07:09:21 13° S 07:12:46 10° SE daylight
01 Nov - 09:08:40 10° SW 09:11:42 12° SSW 09:15:08 10° S daylight
02 Nov - 06:34:43 10° S 06:36:49 12° SSE 06:39:08 10° SSE visible
02 Nov - 08:36:32 10° SSW 08:39:05 12° S 08:41:54 10° S daylight
03 Nov - 06:04:13 10° SSE 06:04:20 10° SSE 06:04:25 10° SSE visible
03 Nov - 08:04:32 10° SSW 08:06:28 11° S 08:08:35 10° S daylight
04 Nov - 07:32:53 10° SSW 07:33:55 10° S 07:34:57 10° S daylight
